星链-37910(STARLINK-37910)

导读

STARLINK-37910(NORAD编号69961)是美国SpaceX公司星链低轨通信星座的成员卫星,属Starlink第二代Mini版本平台,2026年前后发射入轨,目前在轨运行。其运行于高度约480公里的近地轨道,轨道倾角约43度,绕地周期约94分钟,主要承担全球高速低延迟宽带互联网接入服务,可支持偏远地区网络覆盖、应急通信等场景,是星链全球组网部署的组成部分,当前状态稳定,持续为全球百余个国家和地区的用户提供通信支撑。

Basic Information
目录编号:
69961
目录名称:
STARLINK-37910
国际标识:
2026-157U
轨道中心:
EARTH
卫星名称:
星链-37910
卫星全名:
星链-37910(STARLINK-37910)
卫星状态:
在轨 (已飞行58 天)
发射日期:
2026-07-09 UTC
国别 :
美国 (US)
星等 :
--
Orbit Information
数据来源 国际轨道数据
星历时间: 2026-09-04T18:20:43+0800
21小时前
查看轨道信息
半长轴: 6840.846km
偏心率: 0.0001543
轨道倾角: 53.160°
近地点辐角 62.961°
升交点赤经 49.007°
平近点角 297.155°
近地点: 461.653km
远地点: 463.765km
周期: 93.848分钟
每日圈数: 15.343983
Detailed Information
固有亮度:
5
最大亮度:
2.5
卫星平台:
Starlink V1.0
覆盖范围:
全球
运营商:
太空探索技术公司
运营商所在国:
美国
制造商(研发单位):
太空探索技术公司
制造商所在国:
美国
使用方式:
暂无
Satellite Introduction
Starlink 计划是 SpaceX 推出的全球卫星互联网项目,通过发射低轨道卫星,为全球尤其是偏远地区提供高速、低延迟的互联网服务。自 2019 年起,Starlink 已部署数千颗卫星,旨在缩小全球数字鸿沟,推动互联网普及。该项目还为军事、航空等行业提供通信支持,带来广泛经济效益。
2D Orbit Map
3D Orbit Map
Orbit Altitude Analysis Chart
Orbit Inclination Analysis Chart
Orbit Comprehensive Analysis Chart
View Comprehensive Chart
Conjunction Data List
Event ID Objects TCA Miss Dist (km) Collision Risk Probability Collision Risk Index (CRI) Action
CDM_260829-060706-445206-996121
2026-08-29T
06:07:19+0000
0.826 km
远距离
3.131359E-5 中风险 0.65
CDM_260829-144306-445206-996121
2026-08-29T
14:43:09+0000
2.404 km
极远距离
1.234888E-6 低风险 0.37
CDM_260907-101206-935406-996121
2026-09-07T
10:12:46+0000
2.966 km
极远距离
1.214395E-6 低风险 0.37
CDM_260829-130906-445206-996121
2026-08-29T
13:09:22+0000
2.456 km
极远距离
1.188291E-6 低风险 0.36
CDM_260903-102105-199306-996122
2026-09-03T
10:21:11+0000
2.691 km
极远距离
1.18197E-6 低风险 0.36